User: anonymous   Login
Location: Unspecified
(0.0000°N, 0.0000°E)
Time: 09:30:47
(UTC+00:00)
Language:

Orbcomm D8 (FM36) - Orbit

View from above orbital plane
View from above orbital plane
View from above satellite
View from above satellite

Ground track
Ground track

The orbit data is extracted from the following two-line orbital elements,

1 25984U 99065E   19346.02566590 -.00000082  00000-0  21513-4 0  9990
2 25984  45.0369 216.1634 0004024 349.0016  11.0742 14.32805932 45857
Epoch (UTC): 12 December 2019 00:36:57
Eccentricity: 0.0004024
inclination: 45.0369°
perigee height: 779 km
apogee height: 785 km
right ascension of ascending node: 216.1634°
argument of perigee: 349.0016°
revolutions per day: 14.32805932
mean anomaly at epoch: 11.0742°
orbit number at epoch: 4585

The dashed part of the orbit path shows where the satellite is in the earth's shadow,  

DLR